When you browse on this site, cookies collect data to enhance your experience and personalize the content and advertising you see.
Visit our Privacy Policy to learn more. By continuing to use the site, you agree to this use of cookies and data.
  • In Deutschland
  • Länderverzeichnis
  • Für 7 Tage
  • Wassertemperatur
  • Wetterkarte
  • Widgets
  • user-avatar
    Anmelden

    Stündliche Wetter Kalinovskoe

    Heute, 20 Oktober, Sonntag

    Zeit Temperatur Niederschläge Wind Luftdruck Luftfeuchtigkeit
    00:00 -6°C° 0 mm 1 m/S 768 mmHg 79%
    01:00 -6°C° 0 mm 1 m/S 768 mmHg 80%
    02:00 -6°C° 0 mm 1 m/S 768 mmHg 81%
    03:00 -6°C° 0 mm 1 m/S 768 mmHg 82%
    04:00 -6°C° 0 mm 1 m/S 768 mmHg 83%
    05:00 -7°C° 0 mm 1 m/S 768 mmHg 84%
    06:00 -7°C° 0 mm 1 m/S 768 mmHg 85%
    07:00 -8°C° 0 mm 2 m/S 768 mmHg 86%
    08:00 -7°C° 0 mm 2 m/S 768 mmHg 80%
    09:00 -6°C° 0 mm 3 m/S 768 mmHg 75%
    10:00 -5°C° 0 mm 3 m/S 768 mmHg 70%
    11:00 -4°C° 0 mm 4 m/S 768 mmHg 69%
    12:00 -4°C° 0 mm 4 m/S 767 mmHg 68%
    13:00 -3°C° 0 mm 4 m/S 767 mmHg 67%
    14:00 -4°C° 0 mm 4 m/S 766 mmHg 70%
    15:00 -4°C° 0 mm 4 m/S 766 mmHg 73%
    16:00 -4°C° 0 mm 4 m/S 766 mmHg 75%
    17:00 -5°C° 0 mm 4 m/S 766 mmHg 77%
    18:00 -5°C° 0 mm 4 m/S 766 mmHg 78%
    19:00 -7°C° 0 mm 5 m/S 766 mmHg 80%
    20:00 -7°C° 0 mm 5 m/S 765 mmHg 81%
    21:00 -7°C° 0 mm 5 m/S 765 mmHg 82%
    22:00 -7°C° 0 mm 5 m/S 765 mmHg 82%
    23:00 -7°C° 0 mm 5 m/S 764 mmHg 81%

    Morgen, 21 Oktober, Montag

    Zeit Temperatur Niederschläge Wind Luftdruck Luftfeuchtigkeit
    00:00 -6°C° 0 mm 5 m/S 764 mmHg 80%
    01:00 -6°C° 0 mm 5 m/S 764 mmHg 79%
    02:00 -6°C° 0 mm 5 m/S 763 mmHg 78%
    03:00 -6°C° 0 mm 5 m/S 763 mmHg 77%
    04:00 -5°C° 0 mm 5 m/S 763 mmHg 76%
    05:00 -5°C° 0 mm 5 m/S 762 mmHg 76%
    06:00 -5°C° 0 mm 5 m/S 762 mmHg 75%
    07:00 -4°C° 0 mm 5 m/S 761 mmHg 75%
    08:00 -4°C° 0.6 mm 5 m/S 761 mmHg 81%
    09:00 -4°C° 0.6 mm 5 m/S 761 mmHg 87%
    10:00 -3°C° 0.6 mm 6 m/S 761 mmHg 93%
    11:00 -3°C° 0.3 mm 6 m/S 760 mmHg 91%
    12:00 -3°C° 0.3 mm 6 m/S 760 mmHg 90%
    13:00 -2°C° 0.3 mm 6 m/S 760 mmHg 89%
    14:00 -1°C° 0.1 mm 5 m/S 759 mmHg 89%
    15:00 -1°C° 0.1 mm 5 m/S 759 mmHg 90%
    16:00 0°C° 0.1 mm 5 m/S 759 mmHg 90%
    17:00 0°C° 0 mm 5 m/S 759 mmHg 90%
    18:00 0°C° 0 mm 4 m/S 758 mmHg 89%
    19:00 0°C° 0 mm 4 m/S 758 mmHg 89%
    20:00 0°C° 0 mm 4 m/S 757 mmHg 90%
    21:00 -1°C° 0 mm 4 m/S 757 mmHg 91%
    22:00 -1°C° 0 mm 4 m/S 756 mmHg 92%
    23:00 0°C° 0 mm 4 m/S 755 mmHg 92%

    übermorgen, 22 Oktober, Dienstag

    Zeit Temperatur Niederschläge Wind Luftdruck Luftfeuchtigkeit
    00:00 0°C° 0 mm 5 m/S 755 mmHg 92%
    01:00 0°C° 0 mm 5 m/S 754 mmHg 92%
    02:00 +1°C° 0 mm 5 m/S 753 mmHg 92%
    03:00 +1°C° 0 mm 6 m/S 752 mmHg 91%
    04:00 +1°C° 0 mm 6 m/S 752 mmHg 90%
    05:00 +2°C° 0.7 mm 6 m/S 751 mmHg 91%
    06:00 +2°C° 0.7 mm 7 m/S 750 mmHg 92%
    07:00 +2°C° 0.7 mm 7 m/S 749 mmHg 92%
    08:00 +2°C° 0.5 mm 7 m/S 749 mmHg 91%
    09:00 +3°C° 0.5 mm 7 m/S 748 mmHg 90%
    10:00 +3°C° 0.5 mm 7 m/S 748 mmHg 88%
    11:00 +3°C° 0 mm 7 m/S 748 mmHg 88%
    12:00 +4°C° 0 mm 6 m/S 748 mmHg 87%
    13:00 +4°C° 0 mm 6 m/S 748 mmHg 86%
    14:00 +4°C° 0 mm 6 m/S 748 mmHg 85%
    15:00 +3°C° 0 mm 6 m/S 748 mmHg 84%
    16:00 +3°C° 0 mm 6 m/S 748 mmHg 83%
    17:00 +2°C° 0 mm 5 m/S 749 mmHg 85%
    18:00 +2°C° 0 mm 5 m/S 749 mmHg 87%
    19:00 +1°C° 0 mm 5 m/S 750 mmHg 89%
    20:00 +1°C° 0 mm 4 m/S 750 mmHg 89%
    21:00 +1°C° 0 mm 4 m/S 750 mmHg 89%
    22:00 +1°C° 0 mm 4 m/S 750 mmHg 89%
    23:00 0°C° 0 mm 4 m/S 751 mmHg 89%

    23 Oktober, Mittwoch

    Zeit Temperatur Niederschläge Wind Luftdruck Luftfeuchtigkeit
    00:00 0°C° 0 mm 4 m/S 751 mmHg 89%
    01:00 0°C° 0 mm 3 m/S 751 mmHg 89%
    02:00 0°C° 0 mm 3 m/S 752 mmHg 89%
    03:00 0°C° 0 mm 3 m/S 752 mmHg 90%
    04:00 0°C° 0 mm 3 m/S 753 mmHg 90%
    05:00 0°C° 0 mm 3 m/S 753 mmHg 89%
    06:00 -1°C° 0 mm 3 m/S 754 mmHg 89%
    07:00 -1°C° 0 mm 3 m/S 754 mmHg 89%
    08:00 -1°C° 0 mm 3 m/S 754 mmHg 86%
    09:00 0°C° 0 mm 3 m/S 755 mmHg 83%
    10:00 0°C° 0 mm 3 m/S 755 mmHg 80%
    11:00 0°C° 0 mm 3 m/S 755 mmHg 78%
    12:00 +1°C° 0 mm 3 m/S 755 mmHg 77%
    13:00 +1°C° 0 mm 3 m/S 755 mmHg 75%
    14:00 0°C° 0 mm 3 m/S 755 mmHg 78%
    15:00 0°C° 0 mm 3 m/S 755 mmHg 81%
    16:00 +1°C° 0 mm 2 m/S 755 mmHg 84%
    17:00 -1°C° 0 mm 2 m/S 755 mmHg 85%
    18:00 -1°C° 0 mm 3 m/S 755 mmHg 87%
    19:00 -2°C° 0 mm 3 m/S 755 mmHg 88%
    20:00 -2°C° 0 mm 3 m/S 754 mmHg 87%
    21:00 -2°C° 0 mm 3 m/S 754 mmHg 86%
    22:00 -3°C° 0 mm 4 m/S 754 mmHg 85%
    23:00 -3°C° 0 mm 4 m/S 753 mmHg 84%

    24 Oktober, Donnerstag

    Zeit Temperatur Niederschläge Wind Luftdruck Luftfeuchtigkeit
    00:00 -2°C° 0 mm 4 m/S 753 mmHg 83%
    01:00 -2°C° 0 mm 4 m/S 752 mmHg 83%
    02:00 -2°C° 0 mm 4 m/S 752 mmHg 83%
    03:00 -1°C° 0 mm 5 m/S 752 mmHg 83%
    04:00 0°C° 0 mm 5 m/S 751 mmHg 83%
    05:00 0°C° 0 mm 5 m/S 751 mmHg 85%
    06:00 +1°C° 0 mm 5 m/S 750 mmHg 86%
    07:00 +1°C° 0 mm 5 m/S 750 mmHg 87%
    08:00 +2°C° 0 mm 5 m/S 750 mmHg 86%
    09:00 +3°C° 0 mm 5 m/S 749 mmHg 86%
    10:00 +3°C° 0 mm 5 m/S 749 mmHg 85%
    11:00 +5°C° 0 mm 5 m/S 749 mmHg 85%
    12:00 +6°C° 0 mm 5 m/S 749 mmHg 84%
    13:00 +6°C° 0 mm 5 m/S 749 mmHg 83%
    14:00 +6°C° 0 mm 4 m/S 749 mmHg 85%
    15:00 +6°C° 0 mm 4 m/S 749 mmHg 87%
    16:00 +5°C° 0 mm 4 m/S 749 mmHg 89%
    17:00 +5°C° 0 mm 4 m/S 749 mmHg 90%
    18:00 +4°C° 0 mm 3 m/S 749 mmHg 91%
    19:00 +4°C° 0 mm 3 m/S 749 mmHg 92%
    20:00 +4°C° 0 mm 3 m/S 750 mmHg 92%
    21:00 +3°C° 0 mm 3 m/S 750 mmHg 93%
    22:00 +3°C° 0 mm 3 m/S 750 mmHg 93%
    23:00 +3°C° 0 mm 3 m/S 750 mmHg 94%

    25 Oktober, Freitag

    Zeit Temperatur Niederschläge Wind Luftdruck Luftfeuchtigkeit
    00:00 +3°C° 0 mm 3 m/S 750 mmHg 94%
    01:00 +3°C° 0 mm 3 m/S 750 mmHg 95%
    02:00 +3°C° 0 mm 3 m/S 751 mmHg 95%
    03:00 +3°C° 0 mm 3 m/S 751 mmHg 94%
    04:00 +3°C° 0 mm 3 m/S 751 mmHg 94%
    05:00 +3°C° 0 mm 2 m/S 751 mmHg 94%
    06:00 +3°C° 0 mm 2 m/S 752 mmHg 94%
    07:00 +3°C° 0 mm 2 m/S 752 mmHg 94%
    08:00 +4°C° 0 mm 2 m/S 752 mmHg 92%
    09:00 +4°C° 0 mm 3 m/S 752 mmHg 89%
    10:00 +5°C° 0 mm 3 m/S 752 mmHg 87%
    11:00 +7°C° 0 mm 3 m/S 752 mmHg 85%
    12:00 +8°C° 0 mm 3 m/S 752 mmHg 82%
    13:00 +7°C° 0 mm 4 m/S 752 mmHg 80%
    14:00 +7°C° 0 mm 4 m/S 752 mmHg 83%
    15:00 +8°C° 0 mm 3 m/S 751 mmHg 87%
    16:00 +7°C° 0 mm 3 m/S 751 mmHg 90%
    17:00 +7°C° 0 mm 4 m/S 751 mmHg 90%
    18:00 +8°C° 0 mm 4 m/S 751 mmHg 90%
    19:00 +8°C° 0 mm 5 m/S 751 mmHg 90%
    20:00 +8°C° 0 mm 4 m/S 751 mmHg 91%
    21:00 +8°C° 0 mm 4 m/S 751 mmHg 91%
    22:00 +8°C° 0 mm 4 m/S 751 mmHg 91%
    23:00 +7°C° 0 mm 4 m/S 751 mmHg 89%
    Mehr zeigen